Regional Weather Roundup
Issued by NWS

Home | Current Version | Previous Version | Graphics & Text | Print | Product List | Glossary Off
Versions: 1 2 3 4 5 6 7 8 9 10 11 12 13 14 15 16 17 18 19 20 21 22 23 24 25 26 27 28 29 30 31 32 33 34 35 36 37 38 39 40 41 42 43 44 45 46 47 48 49 50

000
ASUS43 KMKX 281400
RWRWI

WISCONSIN REGIONAL WEATHER ROUNDUP
NATIONAL WEATHER SERVICE MILWAUKEE/SULLIVAN WI
800 AM CST FRI NOV 28 2014

NOTE: "FAIR" INDICATES FEW OR NO CLOUDS BELOW 12,000 FEET WITH NO
SIGNIFICANT WEATHER AND/OR OBSTRUCTIONS TO VISIBILITY.

WIZ001-002-006>008-014>016-023>028-281500-
NORTHWEST WISCONSIN

CITY           SKY/WX    TMP DP  RH WIND       PRES   REMARKS
SUPERIOR ARPT  CLOUDY     9   6  87 CALM      30.11S FOG
ASHLAND        LGT SNOW   9   5  84 CALM      30.11F FOG
HAYWARD        CLOUDY     9   4  80 SE5       30.04F WCI   1
SIREN          CLOUDY    11   6  82 SE5       30.05F WCI   3
CUMBERLAND     LGT SNOW  10   5  79 SE8       30.03F WCI  -1
RICE LAKE      CLOUDY    11   6  82 SE8       30.06F WCI  -1
CHETEK         FLURRIES  10   6  83 E7        30.06F WCI   0
LADYSMITH      CLOUDY    10   6  84 SE7       30.08F WCI   0
EAU CLAIRE     NOT AVBL
MENOMONIE      CLOUDY    13   8  80 E8        30.07S WCI   2
NEW RICHMOND   FLURRIES  12   8  83 SE8       30.03F WCI   0
OSCEOLA        CLOUDY    13   9  83 SE7       30.07F WCI   3
$$

WIZ003>005-009-010-017-018-281500-
NORTH CENTRAL WISCONSIN

CITY           SKY/WX    TMP DP  RH WIND       PRES   REMARKS
MANITOWISH WTR LGT SNOW   5   1  84 SE6       30.05F WCI  -6
ARBOR VITAE    FLURRIES   9   5  83 SE3       30.06F
WOODRUFF       FLURRIES   9   5  83 SE3       30.06F
RHINELANDER    CLOUDY     6   2  83 SE5       30.08F WCI  -3
EAGLE RIVER    LGT SNOW   6   1  77 CALM      30.07F
LAND O LAKES   FLURRIES   6   3  85 S5        30.07F WCI  -2
PHILLIPS       CLOUDY     8   4  85 SE5       30.05F WCI  -1
TOMAHAWK       FLURRIES   6   2  85 CALM      30.08F
MEDFORD        CLOUDY     8   4  84 SE8       30.06F WCI  -5
MERRILL        LGT SNOW   8   4  86 SE6       30.10F WCI  -3
$$

WIZ029-030-035-036-043>047-281500-
CENTRAL WISCONSIN

CITY           SKY/WX    TMP DP  RH WIND       PRES   REMARKS
WAUSAU         LGT SNOW   9   5  84 SE8       30.10F VSB 1   WCI  -3
MOSINEE        LGT SNOW   9   7  92 SE8       30.11F WCI  -4
MARSHFIELD     CLOUDY    11   6  81 SE9       30.09F WCI  -2
STEVENS POINT  LGT SNOW   7   4  89 E6        30.14F WCI  -3
WAUPACA        CLOUDY    13   8  81 E6        30.19F HAZE    WCI   4
WAUTOMA        NOT AVBL
WISC RAPIDS    CLOUDY    11   6  81 SE9       30.14F WCI  -2
CAMP DOUGLAS   NOT AVBL
$$

WIZ011>013-019>022-031-037>040-048>050-281500-
NORTHEAST WISCONSIN

CITY           SKY/WX    TMP DP  RH WIND       PRES   REMARKS
ANTIGO         CLOUDY     5   2  88 SE8       30.10F WCI  -8
SHAWANO        LGT SNOW  11   6  82 CALM      30.21F
OCONTO         CLOUDY    11   7  84 CALM      30.23F
STURGEON BAY   CLOUDY    12   3  67 S6        30.21F WCI   3
GREEN BAY      LGT SNOW  13   8  81 S8        30.21F WCI   2
MANITOWOC      NOT AVBL
APPLETON       LGT SNOW  12   9  85 VRB6      30.19F WCI   3
CLINTONVILLE   LGT SNOW  10   7  85 SE3       30.19F
OSHKOSH        SNOW      14   9  80 MISG      30.19F VSB 1/2
$$

WIZ032>034-041-042-053>061-281500-
SOUTHWEST WISCONSIN

CITY           SKY/WX    TMP DP  RH WIND       PRES   REMARKS
LA CROSSE      CLOUDY    18  10  71 S9        30.08F WCI   7
SPARTA         CLOUDY    15  10  80 SE6       30.09F WCI   7
VIROQUA        CLOUDY    14  10  87 SE16      30.04F WCI  -2
BOSCOBEL       PTCLDY    19  10  68 VRB3      30.12F
PRAIRIE DU CHI PTCLDY    17   8  67 SE9G16    30.11F WCI   6
PLATTEVILLE    PTCLDY    16  10  76 SE15      30.12F WCI   1
$$

WIZ056-057-062-063-064-067-068-281500-
SOUTH CENTRAL WISCONSIN

CITY           SKY/WX    TMP DP  RH WIND       PRES   REMARKS
REEDSBURG      CLOUDY    15  10  82 SE6       30.12F WCI   6
BARABOO/DELLS  CLOUDY    15  10  82 S15       30.12F WCI   0
LONE ROCK      NOT AVBL
MINERAL POINT  MOCLDY    18  10  73 SE13      30.10F WCI   4
MADISON        CLOUDY    17  11  77 S15       30.16F WCI   2
MIDDLETON      CLOUDY    18  11  75 SE12      30.16F WCI   5
WATERTOWN      LGT SNOW  15  13  92 SE9       30.19F WCI   3
MONROE         CLOUDY    18  12  79 SE15      30.15F WCI   3
JANESVILLE     CLOUDY    19  12  73 SE12G17   30.19F WCI   7
$$

WIZ051-052-058>065-066-070>072-281500-
SOUTHEAST WISCONSIN

CITY           SKY/WX    TMP DP  RH WIND       PRES   REMARKS
MILWAUKEE      LGT SNOW  18  12  77 S8        30.23F WCI   8
WAUKESHA       LGT SNOW  16  12  86 SE8       30.22F WCI   5
MILWAUKEE/TIMM LGT SNOW  18  10  73 S6        30.24F WCI   9
RACINE         LGT SNOW  19  13  77 S7        30.26F WCI  10
BURLINGTON     LGT SNOW  16  14  90 SE7       30.22F WCI   7
KENOSHA        LGT SNOW  19  15  84 S7        30.24F FOG     WCI  10
FOND DU LAC    LGT SNOW  15  10  80 S10       30.19F WCI   2
SHEBOYGAN      LGT SNOW  14   9  80 S6        30.22F VSB 1   WCI   5
WEST BEND      LGT SNOW  16  12  86 SE5       30.21F WCI   9
JUNEAU         LGT SNOW  14  11  87 SE10      30.19F WCI   2
$$

LSZ147-162-281500-
LAKE SUPERIOR

STATION/POSITION TIME  TEMP    WIND        PRES    WAVE
                       AIR SEA DIR/SP/G            HT/PER
                 (UTC) (F)     (DEG/KT/KT) (MB)    (FT/S)
DEVILS ISLAND    1300   13     200/  7/  9 1021.5F
PORT WING        1300   10     150/  3/  5 1019.6F
SAXON HARBOR     1300   11      CALM  / 16 1020.0
$$

LMZ867-665-643>646-281500-
LAKE MICHIGAN

STATION/POSITION TIME  TEMP    WIND        PRES    WAVE
                       AIR SEA DIR/SP/G            HT/PER
                 (UTC) (F)     (DEG/KT/KT) (MB)    (FT/S)
CHAMBERS ISLAND  1300   17     180/  4/  8 1023.7F
N MID LAKE BUOY  1250   20 42  250/  8/ 12 1025.2F   1/ 2
NORTHPORT PIER   1316   15     210/  3/  6 1023.7F
KEWAUNEE LAKESHO 1300   11     260/  1/  3 1023.4F
SHEBOYGAN LAKESH 1300   16 34  220/  8/ 10 1026.2R
PORT WASHINGTON  1340   17     210/  7/  9 1025.1F
MILWAUKEE LAKESH 1300   19     200/  9/ 11   N/A
S MID LAKE BUOY  1250   26 42  200/ 12/ 16 1026.1F   1/ 6
KENOSHA   LAKESH 1300   19     200/  7/  9 1024.7F
$$

TC  - TEMPERATURE IN CELSIUS
VSB - VISIBILITY IN STATUTE MILES
WCI - WIND CHILL INDEX
HX  - HEAT INDEX



USA.gov is the U.S. government's official web portal to all federal, state and local government web resources and services.